Theta_e
336 336 335 335 335 334 334 333 332 331 332 331 330 331 332 332 331 331 331 331 331 331 330 328 329 329 328 328 327 328 332 335 335 335 334 331 331 330 327 326 326 326 327 329 329 328 328 327 328 327 326 326 326 325 325 325 325 326 325 324 323 319 315 311 307 304 302 303 304 304 306 310 312 313 313 312 311 314 316 317 317 317 317 318 318
336 336 335 334 334 333 334 334 333 332 332 332 331 331 331 331 332 331 331 331 331 331 330 328 328 328 328 327 327 327 329 333 334 335 334 333 332 331 328 327 326 326 327 328 329 330 328 327 328 327 326 326 325 325 324 325 325 325 326 326 326 323 319 315 311 307 304 302 300 300 302 305 306 307 311 311 310 310 312 314 314 314 315 317 317
335 335 334 334 334 334 334 334 334 333 332 332 333 332 332 331 331 331 330 330 330 329 329 329 327 327 327 327 328 326 327 330 332 334 334 334 333 332 329 327 326 325 326 326 327 330 329 328 328 326 325 325 326 325 324 324 324 325 327 328 328 325 321 318 315 311 307 303 301 300 301 302 303 305 308 311 310 309 309 310 312 312 313 315 317
335 335 334 333 333 334 335 335 334 333 333 332 332 332 332 332 332 331 330 329 329 329 329 328 327 326 326 326 327 326 326 327 330 333 334 334 334 333 331 329 327 326 326 325 327 329 329 329 329 326 325 323 324 325 324 324 322 324 327 327 327 326 323 320 318 316 312 307 303 300 301 302 302 303 306 307 307 309 310 309 312 313 312 313 316
334 335 335 333 332 333 334 334 333 333 333 332 332 332 333 333 333 331 330 330 330 329 328 327 327 326 325 326 327 327 326 326 330 333 333 333 333 333 332 330 328 326 326 326 327 328 329 329 329 327 326 323 323 323 324 324 320 322 325 325 326 326 324 322 319 318 315 312 307 303 301 301 300 300 302 303 305 308 310 310 311 313 312 312 313
334 335 335 332 332 332 333 333 333 333 333 332 332 333 333 333 333 331 331 330 329 328 328 328 328 327 325 325 327 329 328 327 330 333 333 333 333 333 332 331 328 327 327 326 326 327 328 329 328 328 328 325 322 321 322 322 318 321 325 324 323 324 325 324 322 319 317 315 311 307 304 301 300 300 300 302 304 305 308 310 311 312 313 312 311
334 334 333 332 332 333 332 333 333 333 333 333 333 333 333 333 333 332 331 330 329 328 328 327 327 326 324 325 327 329 330 329 330 332 333 333 333 333 333 332 329 328 328 327 326 327 327 328 327 327 329 327 324 323 323 322 317 318 325 326 322 322 324 326 324 322 319 317 315 312 308 304 301 300 300 301 302 304 306 308 311 311 311 311 309
334 333 333 333 332 333 333 333 333 333 333 333 333 333 332 332 332 331 331 331 329 328 328 326 325 323 322 324 327 328 330 330 329 329 330 331 333 333 332 331 330 328 328 328 327 326 327 327 326 325 327 327 326 327 327 326 322 316 320 326 325 321 322 325 325 324 322 320 318 316 312 308 304 301 300 300 302 305 305 305 307 307 307 308 308
332 332 332 332 332 332 332 332 332 332 333 332 332 332 333 332 332 332 332 331 329 329 327 325 325 322 321 324 326 328 329 329 329 328 328 329 332 333 333 332 330 328 328 328 327 327 326 327 326 325 325 326 326 328 329 328 328 322 317 323 326 322 320 323 324 324 324 323 322 320 316 312 308 304 302 300 300 302 304 305 304 304 305 306 307
330 331 331 331 330 330 331 331 330 331 331 331 332 332 333 332 332 332 332 331 330 329 327 325 325 324 322 323 325 326 328 329 329 329 328 329 330 331 332 332 331 330 329 328 328 327 327 327 326 325 324 325 324 326 329 330 329 327 322 321 325 324 320 320 323 323 325 325 324 323 321 316 312 310 307 304 301 300 301 302 302 301 303 305 306
329 329 329 329 328 329 330 330 330 330 330 330 331 332 332 332 332 332 332 331 331 330 328 327 327 326 325 325 324 324 326 328 328 328 328 328 328 329 329 330 330 330 330 329 329 328 328 327 326 325 324 325 325 324 328 330 330 330 326 321 322 324 321 320 321 321 324 326 325 324 323 320 315 314 314 310 307 303 301 299 299 301 301 303 303
326 326 327 328 328 328 328 329 329 330 330 330 331 331 331 331 331 332 332 331 331 330 329 329 329 328 328 327 325 323 324 325 326 326 327 328 328 329 329 328 328 329 330 330 330 329 327 328 326 326 325 325 325 325 325 328 329 330 329 325 323 324 325 324 321 319 320 323 324 324 323 322 320 319 318 316 313 310 307 302 299 299 301 301 302
324 323 324 327 327 327 327 327 329 329 330 330 330 330 331 331 331 331 330 330 330 330 329 329 329 329 329 329 326 324 323 323 324 325 326 327 327 327 328 329 328 328 328 329 329 330 329 328 327 327 326 325 325 326 325 325 327 328 328 328 326 326 327 327 325 322 319 319 321 322 321 321 321 322 322 320 318 315 313 309 304 301 300 299 300
324 323 324 326 325 324 326 326 327 328 329 329 329 330 330 330 330 330 330 329 330 330 329 329 329 329 329 329 329 327 325 323 323 323 323 325 326 326 327 328 328 328 328 328 329 330 330 330 329 327 327 327 326 326 325 325 325 326 327 328 328 329 329 329 328 327 325 322 319 320 321 320 320 321 323 323 322 320 317 314 311 308 304 300 298
323 323 324 325 324 323 324 325 326 326 327 328 328 329 329 329 329 329 329 328 329 329 330 329 329 328 329 330 332 331 329 326 325 324 323 323 324 324 324 326 328 328 328 329 328 329 330 331 331 330 329 329 328 327 326 326 326 325 326 327 327 328 330 331 329 328 328 327 324 322 322 323 322 321 321 322 323 323 322 320 317 314 310 306 301
321 322 323 323 323 323 322 323 326 326 326 327 327 328 328 328 329 329 329 328 328 328 329 329 329 328 329 329 329 330 333 330 328 328 327 326 325 325 326 326 328 328 328 329 329 329 330 331 331 331 331 331 331 329 328 328 327 326 326 326 326 327 329 331 331 329 329 329 328 326 325 325 326 325 323 322 322 323 323 322 321 319 316 312 307
320 320 320 320 321 321 321 322 324 325 326 325 325 325 327 328 328 329 329 328 328 328 329 329 328 328 328 329 329 332 335 332 330 330 330 330 330 329 329 330 329 328 328 328 328 329 330 330 329 330 331 331 332 331 330 330 329 328 328 327 326 326 326 328 329 330 331 331 331 330 329 328 328 328 326 325 323 323 323 322 322 321 320 317 312
320 319 319 319 320 319 319 320 321 322 323 322 322 323 325 327 327 328 328 327 328 329 328 328 328 327 327 328 329 331 332 330 330 332 330 330 331 331 332 331 330 329 329 328 328 329 329 330 330 329 330 330 331 331 331 331 331 331 331 330 329 328 326 327 326 328 331 333 333 332 331 330 329 329 328 327 326 326 325 324 323 322 322 320 318
319 319 319 318 318 318 318 318 319 320 320 320 321 321 323 324 325 326 327 327 328 328 327 326 327 327 328 328 327 327 328 328 330 333 332 330 329 329 330 330 330 330 329 328 327 328 328 329 330 330 331 331 331 331 331 331 331 332 332 332 331 330 329 328 327 327 328 330 333 333 333 332 331 331 330 329 329 328 327 326 325 323 322 321 320
319 319 318 317 317 318 317 316 315 317 318 319 320 321 321 321 323 324 325 326 327 327 326 325 325 325 326 327 326 325 326 327 327 328 332 333 330 329 328 327 328 328 329 329 328 327 327 328 329 330 331 330 330 331 331 331 332 332 331 331 331 331 330 330 330 329 328 328 330 331 332 332 332 332 331 331 330 329 328 327 327 325 324 322 321
318 318 317 316 315 316 315 314 313 314 315 316 317 319 319 319 321 321 322 324 325 324 323 322 323 324 325 325 324 325 326 326 325 325 328 332 332 331 325 322 326 326 326 328 328 328 328 327 327 328 328 329 329 330 331 330 330 330 330 330 330 330 330 330 330 330 330 329 329 329 330 331 332 332 332 332 331 330 330 329 328 327 326 324 322
316 316 316 315 315 315 315 314 314 314 314 314 314 316 317 317 317 319 320 321 321 319 318 317 319 321 324 325 325 325 324 322 323 324 325 326 327 326 319 318 324 325 322 325 326 327 327 327 328 328 326 327 327 327 328 327 327 328 329 330 330 330 329 329 329 330 330 330 330 329 329 329 331 331 332 332 332 331 330 330 329 328 327 326 324
313 313 314 314 315 316 315 315 316 316 316 315 314 315 316 315 315 316 318 318 318 317 316 316 316 317 319 321 320 319 317 316 317 319 320 320 322 320 314 313 319 318 317 320 322 322 323 324 324 323 321 323 323 322 321 322 325 327 328 329 329 329 329 328 329 329 329 330 330 331 330 328 329 330 331 331 331 332 332 331 330 329 328 327 326
314 313 312 312 314 314 315 315 316 317 316 316 315 314 315 315 315 315 315 316 315 315 315 315 315 315 315 315 315 315 314 314 314 314 314 315 316 315 312 313 316 314 313 315 317 319 320 320 318 316 317 319 321 322 320 320 324 327 327 328 328 330 330 330 330 330 330 330 330 331 330 329 329 330 330 331 331 331 331 332 331 331 329 328 327
315 313 311 311 312 312 313 314 316 317 316 315 315 314 313 312 312 311 313 315 315 314 314 315 314 314 314 313 313 314 314 314 313 313 313 312 312 312 312 313 314 313 312 313 314 316 316 315 313 313 315 316 319 324 324 323 324 325 326 328 329 330 329 328 328 328 328 328 328 329 328 328 328 329 329 330 330 331 331 331 331 331 330 329 328
314 312 311 312 313 313 311 312 315 316 315 315 316 315 313 311 310 310 310 312 315 315 314 313 313 313 313 313 313 313 314 314 314 313 312 312 312 313 312 312 312 312 312 313 313 313 313 312 312 312 313 313 316 322 325 325 326 327 328 329 329 328 326 325 325 326 325 325 326 327 327 327 327 326 327 327 327 328 329 330 330 330 330 329 329
312 311 312 314 314 314 312 310 310 312 314 316 316 317 315 312 310 311 309 309 311 313 314 313 313 313 311 311 312 313 312 313 314 313 313 313 313 313 313 314 316 315 312 313 313 311 311 312 312 311 311 311 312 315 317 319 321 323 324 324 323 322 320 320 321 322 323 325 326 326 326 326 325 325 325 324 325 325 326 327 328 329 329 329 329
312 312 313 314 314 315 314 311 308 308 313 316 316 316 316 313 310 310 313 312 310 310 313 314 314 313 311 309 309 311 309 308 310 312 313 312 312 312 313 314 317 320 319 318 316 313 310 310 311 309 308 308 308 309 311 312 313 314 315 317 317 316 315 315 316 317 317 319 321 322 322 322 321 321 321 320 321 321 322 323 325 326 326 328 329
315 314 313 314 315 315 315 313 310 308 311 316 316 315 315 315 312 310 313 315 313 311 312 314 314 313 312 310 309 308 308 306 307 311 312 312 311 311 312 312 314 320 322 322 319 314 310 310 310 308 306 306 306 307 308 310 310 311 311 312 312 312 313 313 313 314 314 314 315 315 316 315 316 316 316 316 316 316 317 318 320 323 324 326 327
318 316 315 315 316 316 315 315 313 310 311 313 315 315 314 314 315 312 312 315 316 313 312 313 313 313 313 313 310 309 310 309 308 309 310 310 310 309 310 310 311 313 314 317 318 314 310 309 309 308 306 306 306 307 308 309 309 310 310 310 310 310 310 310 310 311 311 312 312 312 312 312 312 313 314 314 315 315 315 315 316 318 321 324 325
318 318 316 316 316 316 315 315 315 314 312 311 313 315 314 314 316 314 313 314 315 314 313 313 312 312 313 313 312 310 310 311 309 309 309 309 309 309 309 309 309 310 310 311 314 313 309 309 308 307 307 306 307 307 307 307 307 307 307 308 309 309 310 309 309 309 310 310 310 310 310 311 311 311 312 312 312 312 313 314 315 315 317 320 322
318 318 318 317 317 317 316 316 316 316 316 313 313 314 313 313 316 316 314 315 313 313 314 314 311 311 312 313 313 310 309 311 310 309 309 309 309 309 310 310 310 310 310 309 311 311 308 308 307 307 308 306 306 306 305 305 305 305 306 308 309 309 309 310 309 309 310 310 310 310 310 310 310 310 311 311 311 311 311 312 313 313 314 316 317
319 318 318 318 318 318 317 317 317 317 317 316 315 315 313 313 315 316 315 315 314 313 314 315 312 311 311 312 312 310 308 310 310 309 309 309 309 308 309 311 309 309 310 309 309 308 307 307 308 307 306 305 305 304 304 304 305 306 306 307 308 308 309 309 309 309 309 309 309 310 310 310 310 310 310 310 311 310 311 312 313 313 314 315 317
319 319 319 319 319 318 318 318 318 318 318 318 317 317 315 314 314 315 315 314 314 314 315 315 314 311 311 311 312 311 309 308 307 308 308 308 308 309 308 308 308 307 308 308 308 307 307 307 307 306 306 305 304 304 304 305 305 306 306 307 307 307 307 308 308 308 309 309 309 309 310 309 309 310 310 311 311 311 311 311 313 314 314 315 317
320 319 319 319 319 319 318 318 319 318 318 318 319 319 318 317 315 314 314 314 314 314 314 315 315 314 312 311 312 312 311 310 307 306 308 308 308 308 308 307 307 307 307 307 306 307 307 307 306 306 305 305 304 304 303 304 305 306 306 307 307 307 307 307 307 308 308 309 309 309 309 309 310 310 310 310 311 311 311 311 311 313 314 315 317
320 320 320 320 319 319 319 319 319 319 319 319 319 319 319 319 318 315 315 315 314 314 314 315 315 314 313 312 311 311 311 311 309 306 307 308 309 309 308 307 307 306 306 306 305 305 305 305 305 305 304 303 303 302 303 304 305 305 305 306 306 306 307 307 307 307 308 308 308 308 308 309 309 309 309 309 309 308 309 309 309 310 311 313 315
321 321 321 320 320 320 319 320 319 319 320 320 320 320 319 319 319 317 316 315 315 315 314 315 314 314 314 313 312 311 310 310 310 308 307 308 309 309 308 308 306 305 304 304 304 304 303 302 302 302 302 301 301 301 302 303 302 303 303 304 304 305 305 306 306 306 306 307 307 307 307 308 308 308 308 308 307 307 308 308 309 309 309 309 311
321 321 321 321 321 321 320 320 320 320 320 319 319 320 320 320 319 319 318 317 316 315 315 315 314 314 314 314 314 312 310 310 310 310 308 308 309 309 308 307 305 302 301 300 300 300 299 299 299 299 299 298 299 299 299 299 298 299 300 300 301 302 302 303 303 303 304 305 306 307 307 307 307 307 307 307 307 308 308 309 309 309 309 309 310
320 320 321 321 321 321 321 321 320 320 319 319 319 320 320 320 318 318 319 317 316 316 316 315 316 315 314 314 314 313 312 311 311 310 309 308 308 308 307 306 303 301 300 299 297 296 296 296 297 298 298 297 298 298 297 297 297 298 298 299 299 299 299 299 300 300 301 302 304 306 306 307 307 307 307 307 307 308 308 308 308 308 308 308 308
321 321 320 320 321 321 321 321 321 321 320 319 319 319 320 318 317 317 318 318 317 316 316 316 316 315 314 314 314 313 313 312 311 310 310 308 307 307 306 305 303 302 300 298 297 297 297 298 298 298 299 299 299 299 299 299 299 299 299 299 299 299 299 299 298 299 299 300 301 303 304 305 306 306 307 307 307 307 306 307 306 306 306 306 306
321 322 321 321 321 321 322 321 321 321 321 320 320 319 319 318 317 318 319 318 318 317 316 316 316 316 315 314 314 313 313 312 311 310 310 308 307 306 305 305 303 302 300 299 300 300 300 300 300 300 300 300 300 300 300 300 299 300 300 300 299 300 300 299 298 298 299 299 299 299 300 301 301 302 303 304 305 305 305 306 306 305 305 305 305
321 321 321 321 321 321 321 321 321 321 321 320 320 320 319 319 319 319 319 319 319 318 317 317 316 316 315 314 314 313 312 312 311 310 309 308 307 306 305 305 303 302 301 301 301 301 301 300 300 300 299 299 300 300 300 300 300 300 300 300 300 300 300 299 299 298 298 299 299 299 299 298 298 299 299 299 301 301 301 302 302 302 303 304 304
318 319 319 320 320 320 320 320 320 321 321 321 321 320 320 320 320 320 320 319 319 319 319 317 316 316 315 314 314 313 312 311 311 310 309 307 307 306 305 304 303 301 301 302 301 301 300 300 299 299 299 299 300 300 299 300 300 299 300 299 299 299 299 299 299 299 299 299 299 298 298 298 298 297 298 298 298 298 298 298 299 299 300 301 302
313 314 315 317 318 319 319 320 320 320 319 319 320 320 321 321 320 320 320 319 319 319 319 317 316 316 315 314 313 312 311 311 310 309 308 306 306 305 304 303 302 302 302 302 301 301 300 300 300 300 299 299 299 299 299 299 299 298 299 299 299 299 299 298 298 298 299 299 298 297 297 297 297 297 297 297 297 297 297 298 299 299 300 300 300
310 310 311 312 313 314 316 317 318 319 319 318 318 319 320 320 321 321 320 319 319 319 318 317 316 315 314 313 312 311 310 310 309 308 307 306 305 304 304 303 302 302 302 302 302 301 300 299 299 298 298 298 298 298 298 298 298 298 298 298 298 297 297 298 298 298 298 298 297 296 296 297 296 296 296 296 296 297 298 299 299 300 300 300 300
309 310 310 310 311 311 312 312 313 314 316 318 319 319 318 318 320 320 321 320 319 318 318 317 316 315 314 312 310 309 309 308 307 307 306 305 305 304 303 302 302 302 302 302 301 300 298 297 297 297 297 297 298 297 297 297 297 296 296 295 295 295 295 296 296 296 297 297 297 296 296 296 296 296 296 296 296 297 298 298 299 299 299 300 301
309 310 311 311 311 311 311 311 311 312 312 315 318 319 318 318 319 320 320 320 319 317 316 316 316 314 312 310 309 309 309 308 306 306 305 305 304 303 302 301 301 301 301 301 300 298 298 297 297 297 297 297 297 296 296 296 295 295 294 294 293 294 294 294 295 295 295 296 296 295 295 295 296 296 296 296 296 297 298 298 298 299 299 300 301
309 310 310 310 310 310 311 312 312 312 312 313 315 318 319 318 318 319 319 318 317 315 315 315 314 312 311 310 309 308 307 306 305 305 305 304 303 302 301 301 301 300 300 299 298 298 297 297 297 297 297 296 296 296 295 295 295 294 293 293 293 293 293 293 293 293 294 294 295 295 295 295 295 296 296 296 296 297 298 298 299 299 299 299 299
309 310 310 310 310 310 311 311 311 311 311 311 313 315 317 318 318 318 318 316 314 313 312 311 310 309 308 307 307 305 305 304 304 304 303 303 302 302 301 300 300 299 299 298 298 297 297 297 297 296 296 296 295 295 294 294 293 293 292 291 291 291 291 291 291 292 293 293 293 294 294 295 295 296 296 296 296 297 297 297 298 298 298 298 298
309 309 309 309 310 310 310 310 311 311 311 311 312 314 316 318 318 317 316 313 311 310 308 307 306 306 306 305 305 305 304 304 304 303 302 302 301 301 300 299 298 298 298 297 297 296 296 295 295 295 294 294 293 293 293 292 292 291 291 290 290 290 290 291 291 291 292 292 293 294 294 295 295 295 295 295 296 296 297 297 298 298 297 297 297
309 309 309 309 310 310 310 311 311 311 311 312 312 314 315 316 315 315 313 311 309 307 306 305 305 305 305 304 304 304 304 303 302 302 301 300 300 299 298 297 296 296 296 295 294 294 294 293 293 292 292 292 292 292 292 292 292 291 291 291 291 290 290 290 291 291 291 292 293 294 294 294 295 295 295 295 296 296 296 297 297 296 296 296 296
Wind_Speed
7 7 8 9 9 10 10 11 10 9 8 8 8 8 7 5 5 6 5 5 6 5 5 4 5 5 4 5 3 3 8 11 11 10 10 10 8 7 8 7 7 7 7 8 9 10 11 11 11 10 10 10 10 10 11 10 9 8 8 5 4 4 4 5 5 5 5 5 6 7 7 8 8 9 9 9 10 11 11 11 11 10 12 13 12
8 9 11 12 13 13 14 13 11 11 10 9 10 9 10 9 8 8 7 7 8 8 7 5 5 6 6 7 6 5 7 11 12 11 11 10 8 8 8 8 7 7 8 8 9 10 11 11 12 11 11 11 10 10 10 11 9 9 8 7 4 4 4 4 5 5 4 4 4 5 6 7 7 8 8 8 9 10 10 10 10 10 11 12 12
12 13 13 13 13 13 13 13 12 12 11 11 12 11 11 11 8 8 9 9 9 8 9 6 3 4 6 8 9 7 7 10 12 12 12 11 9 8 9 9 8 7 8 8 9 11 11 11 12 11 11 11 11 11 10 11 10 9 9 8 5 4 5 5 5 5 4 4 4 4 5 6 6 7 7 8 8 8 9 9 9 10 11 12 11
14 14 13 13 12 11 11 11 11 11 11 11 12 11 11 10 8 8 9 9 8 7 7 5 1 0 1 4 7 6 5 9 12 14 14 12 11 10 9 10 10 9 8 8 9 11 11 10 12 10 10 11 11 11 11 11 11 10 10 10 8 5 6 6 5 5 5 4 4 4 4 5 5 6 6 6 7 7 8 8 9 9 9 11 11
13 12 11 10 9 9 10 10 10 10 11 11 11 11 11 10 9 8 9 9 8 7 6 5 2 1 1 1 3 3 3 6 13 16 15 14 12 11 11 11 11 11 9 8 9 11 11 11 12 11 10 9 10 12 11 11 11 12 10 11 11 8 6 6 5 5 5 5 4 4 4 4 5 5 5 5 6 7 7 7 8 8 8 9 11
14 12 9 8 8 10 10 9 10 10 10 11 10 9 10 10 10 9 9 8 7 6 8 6 3 4 2 2 3 2 2 3 13 18 17 16 14 12 12 12 12 12 11 9 9 10 11 11 11 12 11 9 9 10 11 11 11 12 11 10 11 10 8 7 6 5 5 6 5 5 4 4 4 4 4 5 5 6 7 7 7 7 7 8 9
14 13 10 9 9 10 10 9 10 10 10 11 10 9 9 9 10 10 9 8 7 7 8 6 3 3 2 0 3 5 6 7 9 16 16 16 15 14 14 14 13 13 12 10 10 10 11 11 11 12 12 10 9 9 9 9 9 11 12 11 10 10 9 8 7 6 5 6 6 5 5 4 4 4 4 4 5 5 6 6 6 6 7 7 7
11 11 10 11 10 11 11 9 9 10 11 11 9 9 9 10 10 10 10 9 8 8 8 6 3 2 3 3 2 4 5 8 8 9 11 13 17 18 17 16 16 15 13 12 11 11 11 11 11 12 12 10 10 9 9 9 9 9 11 12 10 10 11 9 8 6 5 5 6 6 6 5 4 4 4 4 4 5 5 5 5 5 5 6 7
7 8 7 8 9 10 10 9 8 9 10 10 9 10 10 10 11 11 10 8 9 8 6 5 3 3 4 5 4 4 5 5 9 9 8 10 14 18 18 17 17 16 15 15 14 13 12 12 10 11 11 9 9 10 10 10 10 9 9 12 11 9 11 11 9 7 5 4 4 4 5 7 5 4 3 3 3 4 4 4 4 4 5 5 7
5 6 6 6 6 7 8 7 7 8 9 9 10 11 11 10 10 12 11 9 9 7 6 6 5 3 3 4 5 5 5 5 7 9 10 10 7 10 13 14 15 17 16 15 16 16 15 13 11 10 10 9 9 10 11 11 11 10 9 11 11 10 9 11 11 9 7 6 3 2 2 6 7 5 4 3 2 3 3 3 3 4 4 5 6
6 7 8 8 6 6 6 5 6 7 8 10 10 10 9 9 10 12 12 10 9 7 6 6 5 3 3 4 5 5 6 7 6 8 9 11 10 7 6 8 11 15 17 16 16 17 17 16 14 12 11 10 10 10 11 12 13 12 10 9 10 10 8 9 11 10 9 7 6 4 2 4 7 6 5 4 3 2 2 3 3 4 4 5 5
8 8 8 8 7 7 7 6 5 6 6 8 9 8 8 9 10 11 11 10 9 8 7 7 6 4 4 5 6 5 6 7 5 5 7 8 8 8 5 4 6 11 15 16 16 17 18 18 17 15 12 12 12 11 10 11 13 13 11 9 10 10 7 7 8 9 10 10 8 7 4 4 6 6 5 5 4 3 2 2 3 4 5 5 5
6 6 6 7 9 9 8 7 6 5 5 6 6 6 7 9 9 10 10 7 6 6 6 8 7 5 3 3 5 4 5 7 7 5 4 5 6 4 3 2 2 6 11 14 17 18 18 19 18 17 15 13 13 13 12 11 12 14 12 11 10 10 9 7 7 7 8 9 9 8 6 5 6 6 5 5 5 4 4 3 3 4 5 5 5
5 6 7 8 10 10 9 9 8 7 6 5 5 4 4 6 6 8 9 8 6 5 5 6 5 3 2 0 1 2 3 5 7 8 7 5 5 5 4 2 0 3 7 12 16 19 19 18 18 19 18 17 16 15 15 13 13 13 13 13 12 11 11 10 9 8 8 8 9 8 7 6 6 7 7 6 5 5 5 4 4 5 5 5 5
6 8 10 10 10 10 9 9 9 9 8 7 5 4 3 2 3 4 7 8 7 5 6 6 4 2 1 2 1 1 3 4 4 6 7 7 7 5 4 4 2 2 5 7 12 17 19 17 17 19 19 18 17 17 17 16 15 15 14 14 13 12 13 13 13 12 10 9 9 9 8 7 6 7 7 7 7 7 6 5 5 6 6 5 6
8 9 10 10 9 9 9 8 8 8 7 8 8 7 5 2 1 2 4 7 6 5 6 6 5 4 2 1 0 1 1 3 2 1 2 4 5 4 3 4 4 3 4 5 8 12 16 16 16 17 18 17 18 18 17 17 17 17 16 16 15 15 14 15 15 14 12 11 10 10 10 9 8 7 7 8 8 8 8 8 7 7 7 7 7
11 10 10 10 10 10 9 9 9 8 8 9 10 9 8 5 4 2 3 6 7 6 5 5 7 7 3 2 1 1 2 1 1 1 0 1 2 3 3 3 5 6 6 6 7 9 12 14 14 14 16 16 17 18 18 18 17 17 17 17 17 17 16 16 16 15 14 14 13 13 13 12 11 9 9 9 8 8 9 9 9 9 9 10 10
10 10 10 10 11 10 10 11 11 10 10 10 10 9 9 9 7 4 2 4 7 7 6 5 8 9 6 3 1 0 1 1 1 0 1 1 1 2 2 2 3 5 6 6 6 7 8 9 10 11 13 14 15 17 18 18 17 17 17 18 19 19 18 17 17 16 16 17 17 16 16 15 14 13 11 11 10 10 9 10 10 10 11 12 12
8 9 9 9 10 10 10 10 10 10 9 9 9 9 9 9 8 6 5 4 4 5 6 4 5 8 8 4 2 1 0 1 2 1 1 1 1 0 1 2 2 3 4 5 5 5 5 7 7 7 9 10 12 14 16 16 16 16 15 15 16 18 18 18 18 18 18 19 18 18 18 18 17 16 15 14 14 12 11 11 12 12 12 13 13
8 8 8 9 10 9 9 9 9 8 7 8 9 9 9 9 8 7 6 6 4 4 5 3 1 4 6 3 3 2 1 1 2 2 2 1 2 2 1 2 2 3 4 4 5 6 7 8 8 7 7 6 8 11 12 13 15 15 14 14 14 15 16 17 17 18 20 20 21 21 20 19 19 19 18 17 16 15 14 14 14 13 13 14 15
8 9 9 10 11 10 9 8 9 9 8 9 9 8 9 9 8 8 7 8 7 7 8 6 4 3 4 1 1 2 2 2 2 3 4 2 0 2 3 4 2 1 2 3 4 6 8 8 9 9 7 6 7 9 10 10 11 12 12 11 12 13 13 13 14 16 18 20 21 23 23 22 20 19 19 19 18 17 17 16 16 15 14 15 15
9 9 9 10 11 10 9 9 11 11 11 10 9 8 8 7 7 8 9 10 10 10 10 9 7 6 5 3 3 4 3 4 4 4 4 3 2 1 3 5 3 4 6 4 3 4 4 5 6 5 6 9 9 9 9 7 7 9 9 9 9 10 10 11 12 14 17 18 20 22 24 24 22 19 19 19 19 19 18 18 18 18 17 17 16
10 10 9 10 10 9 8 9 10 11 11 11 10 9 8 7 7 8 9 10 9 9 9 9 9 10 10 8 7 7 6 6 6 6 4 4 3 1 4 5 3 4 8 7 4 4 4 4 3 2 2 3 8 11 12 10 7 8 10 10 8 8 9 10 10 12 14 17 19 20 20 21 22 22 21 21 20 20 20 20 20 20 19 19 18
11 10 10 10 10 9 8 8 8 9 10 10 9 8 8 7 7 7 8 8 8 7 9 10 10 11 11 10 10 9 9 9 8 7 6 5 4 2 4 5 3 5 10 10 10 9 6 6 7 9 10 9 5 4 8 9 9 10 10 10 9 8 8 9 9 10 11 13 15 14 13 16 19 21 21 21 21 21 22 22 22 22 21 22 21
12 11 11 11 11 10 9 8 7 8 8 8 7 7 7 7 7 8 8 8 8 8 10 11 10 10 10 9 8 8 9 9 7 7 6 5 5 4 3 3 3 4 9 11 13 15 15 16 16 14 13 15 14 8 2 4 6 6 7 7 6 6 6 6 7 7 8 10 10 7 6 9 13 15 17 19 20 21 23 23 24 25 24 23 22
13 12 12 12 11 9 8 8 7 7 7 6 5 6 7 7 8 9 8 7 8 8 9 9 9 9 8 7 7 8 8 7 6 6 6 6 6 5 2 3 3 4 7 9 12 14 13 14 16 15 15 16 18 16 12 6 2 1 2 2 3 4 5 5 5 6 6 7 7 6 5 6 8 10 12 14 17 20 22 23 24 27 27 26 25
14 13 13 13 12 10 8 7 7 7 7 5 4 4 4 5 6 8 8 7 7 8 8 8 8 8 6 6 6 7 6 5 5 6 6 7 8 7 4 3 3 4 5 6 9 13 12 9 11 15 15 15 16 17 17 14 9 6 5 4 4 4 5 6 6 7 7 7 7 7 7 7 8 8 9 10 12 15 18 20 23 26 27 26 27
15 14 14 13 11 10 8 6 7 8 8 6 4 3 3 4 5 6 7 8 7 8 9 8 7 7 6 5 5 5 5 4 4 5 6 7 8 8 8 6 4 2 3 4 5 8 12 10 8 12 15 14 13 12 12 12 11 8 7 6 5 5 5 6 8 8 8 8 8 8 8 9 10 10 11 11 12 12 13 16 19 22 25 26 27
15 14 14 13 11 10 8 6 7 7 9 8 5 3 1 2 3 4 5 6 6 7 8 9 7 6 5 5 5 6 7 6 5 5 4 4 6 7 8 8 6 3 1 3 3 2 8 12 9 11 15 15 12 10 9 9 9 8 6 6 6 7 7 8 9 9 10 10 10 10 11 12 13 13 14 14 14 15 15 16 16 18 20 22 26
16 15 14 13 12 10 8 7 7 7 9 9 7 4 2 1 1 1 2 3 3 3 5 6 6 4 4 4 5 7 8 8 8 7 6 5 4 5 6 6 7 5 4 1 1 1 5 10 10 12 16 15 13 10 9 8 8 8 7 7 7 8 9 10 10 10 10 11 11 12 12 12 13 14 15 15 16 17 17 18 17 17 18 19 21
17 17 16 15 13 12 10 8 8 7 7 8 7 6 4 4 2 1 1 1 0 1 1 2 2 2 3 3 3 4 5 5 7 7 7 7 6 6 6 5 6 7 5 3 1 2 6 9 11 14 15 14 13 12 11 10 10 10 9 8 7 8 10 11 11 11 10 11 12 12 12 12 13 14 14 15 16 16 17 18 18 18 18 18 19
19 19 18 16 15 14 12 11 10 10 9 8 8 7 6 6 5 4 3 2 2 3 2 1 1 2 3 2 1 2 2 2 4 4 4 4 5 5 4 5 6 6 6 4 1 5 8 9 12 14 14 15 15 15 16 15 13 13 11 10 10 10 11 12 12 11 12 12 12 12 12 12 13 14 15 16 16 17 16 16 17 18 18 18 18
21 20 20 18 16 15 14 13 11 11 10 9 8 8 7 8 8 7 7 6 5 5 5 4 3 2 4 3 0 1 1 1 1 2 3 3 4 5 4 4 6 5 6 6 4 7 10 11 13 15 16 17 17 18 19 19 17 16 14 13 12 13 14 14 14 13 13 13 13 13 13 13 14 15 16 17 17 17 17 16 16 16 17 17 17
21 21 21 19 18 17 15 14 13 12 11 10 9 9 9 10 10 10 10 9 9 8 8 8 6 4 4 5 3 2 2 2 1 2 2 2 4 5 5 4 6 7 7 8 7 7 12 15 16 17 18 19 19 19 20 21 20 19 17 16 16 16 16 16 15 15 14 15 15 14 14 14 14 15 15 15 15 15 15 15 15 14 15 17 18
20 22 22 21 20 18 17 16 15 14 13 12 11 11 10 10 11 12 12 11 11 11 11 11 10 8 7 6 6 5 5 3 2 2 1 1 3 4 4 4 6 7 8 10 10 8 11 15 17 18 19 19 19 20 20 19 19 19 19 18 17 17 16 16 16 14 14 15 15 15 14 14 13 13 14 15 16 16 16 15 15 15 14 15 17
17 19 21 21 21 20 19 19 18 17 16 15 15 14 13 13 12 12 13 13 13 14 13 13 13 12 11 9 8 7 7 5 3 3 2 2 3 3 3 4 5 7 8 9 10 9 10 13 17 18 18 19 19 19 18 18 18 18 18 18 18 17 16 15 15 15 14 14 14 14 14 15 15 16 16 18 18 18 18 17 16 16 15 14 15
15 15 16 18 20 21 21 21 20 19 17 17 18 18 18 17 16 15 15 15 16 16 16 16 15 15 14 13 11 9 9 8 6 5 4 3 5 5 5 7 7 8 9 10 11 11 12 14 17 19 19 19 19 18 17 19 20 20 20 18 17 18 18 16 15 16 17 16 16 16 16 16 17 18 19 20 20 18 17 17 17 16 16 15 15
13 12 12 13 16 19 20 20 20 18 17 16 17 19 20 20 19 18 18 19 19 19 19 18 17 17 17 16 14 12 12 10 8 7 6 6 6 6 7 8 9 10 11 12 13 13 14 15 15 17 19 20 20 20 20 21 21 21 22 22 20 19 21 22 20 20 20 20 18 17 17 17 18 19 19 20 18 16 15 15 15 15 14 14 14
13 12 12 12 13 15 16 18 18 17 17 17 17 18 19 20 20 20 21 22 22 22 21 20 19 18 18 17 17 15 14 13 11 9 8 8 8 7 8 8 8 10 13 14 14 14 14 15 15 16 18 20 20 20 21 21 20 20 23 25 25 25 26 26 25 25 23 22 20 18 16 15 15 15 15 14 13 12 13 14 15 15 16 15 15
12 12 13 13 13 12 12 13 14 16 18 19 19 19 19 19 19 19 20 22 24 24 24 23 23 21 19 19 18 18 17 16 13 11 10 9 8 8 8 8 8 11 13 12 13 13 13 14 15 15 18 20 20 21 23 23 22 22 24 24 25 28 29 29 28 25 23 22 22 20 19 18 17 16 14 13 12 13 14 15 17 18 20 20 20
10 12 13 14 14 13 13 13 14 15 17 19 20 20 20 21 22 21 20 22 24 26 26 26 25 25 22 20 20 19 19 18 16 14 12 10 9 9 9 8 9 11 12 11 11 11 12 14 15 16 18 20 21 22 23 23 21 23 25 23 23 26 30 31 30 24 19 21 23 23 23 23 23 23 22 21 20 19 20 20 21 23 23 24 25
8 10 11 12 12 12 13 14 14 15 17 18 19 19 20 20 22 22 22 22 24 26 26 26 27 26 24 23 22 21 21 20 19 17 15 11 10 10 10 10 11 11 11 10 10 10 11 13 14 15 16 19 21 21 22 23 23 24 25 24 24 27 28 28 29 26 21 21 25 28 28 27 27 27 28 27 27 27 27 27 27 28 28 27 27
4 5 7 8 9 9 10 10 11 13 14 16 17 17 17 18 20 20 21 22 23 24 24 25 27 27 26 24 23 23 23 22 20 17 14 11 10 10 10 10 11 11 10 9 10 11 12 12 14 15 15 18 21 22 22 23 23 22 23 24 25 26 24 20 20 24 25 25 28 32 33 31 28 27 28 28 27 27 27 27 27 27 26 26 27
3 3 3 5 6 8 9 10 10 10 10 10 11 13 14 15 17 19 20 21 21 20 20 22 25 26 26 25 24 25 25 23 20 16 12 10 10 9 9 9 10 10 10 10 11 11 11 12 14 16 16 17 20 21 20 20 21 21 23 24 23 22 22 20 19 23 27 29 30 32 35 34 29 26 27 26 25 25 24 22 21 20 21 22 23
4 5 5 5 6 7 8 9 10 11 11 10 9 10 11 11 13 15 17 18 19 20 20 20 21 24 26 27 26 26 23 20 17 13 11 11 10 10 10 10 11 11 12 12 11 11 11 12 14 16 17 17 17 19 18 18 19 21 22 23 22 21 21 21 23 27 31 32 30 29 31 32 29 26 26 27 27 25 21 18 18 19 20 21 22
6 6 6 7 8 8 9 9 9 10 11 11 12 12 11 11 11 12 13 15 16 17 19 20 21 23 26 27 26 23 19 16 14 13 12 12 11 11 11 12 12 12 12 11 11 11 12 13 14 16 16 16 16 18 18 17 17 18 19 21 22 22 23 25 27 29 31 30 28 24 24 27 27 25 26 29 29 25 20 19 19 18 17 18 19
7 7 7 8 8 9 10 10 10 11 11 11 13 14 13 12 12 11 11 12 13 14 16 20 21 23 25 25 23 19 17 15 14 13 13 12 12 12 12 12 11 11 10 10 11 12 13 14 15 15 16 17 17 18 18 18 18 18 20 22 23 25 28 30 30 30 29 27 24 20 20 23 24 26 27 27 25 24 21 18 15 12 12 14 17
8 8 8 8 9 10 10 11 12 12 12 12 12 14 15 14 13 12 10 10 12 13 16 17 18 20 21 20 18 17 16 14 12 11 11 11 11 11 11 11 10 10 9 10 11 12 13 14 14 15 15 17 18 18 19 21 23 24 26 27 27 27 27 26 27 27 27 25 21 18 20 23 23 25 27 25 23 23 20 15 12 11 13 16 19
9 9 9 10 10 11 11 12 13 13 13 12 12 14 16 15 14 12 10 10 11 11 11 12 14 15 15 14 15 15 13 11 9 10 10 10 11 11 10 9 9 9 10 11 12 12 13 14 15 16 18 19 21 23 24 25 27 27 27 27 25 24 23 20 20 22 24 24 22 20 22 24 21 21 23 24 23 21 18 14 12 13 16 20 23
9 10 10 11 11 12 13 13 13 13 13 12 11 12 14 13 12 12 12 12 13 14 14 15 14 14 13 12 11 11 9 9 10 11 11 11 11 10 9 8 9 11 12 13 14 15 16 17 18 19 20 20 21 22 22 21 20 19 19 20 20 20 20 17 17 21 22 22 19 16 19 21 17 17 21 22 22 20 16 13 12 14 19 23 24
11 10 10 10 11 11 12 12 12 11 11 10 9 9 10 9 10 12 13 14 16 16 15 15 13 11 10 9 7 7 7 8 9 9 9 9 8 7 7 8 10 12 13 14 15 16 16 17 16 16 16 16 16 16 16 14 13 12 13 15 16 18 20 19 19 18 14 12 11 12 16 20 19 19 20 16 13 12 11 12 15 20 24 24 23
Wind_Direction
190 194 195 188 189 194 201 210 210 210 214 213 218 225 231 240 248 236 223 232 248 255 277 297 255 229 204 201 201 204 210 207 197 190 192 193 188 183 184 192 202 206 205 198 193 194 192 191 194 194 189 182 177 171 166 167 165 170 181 181 161 142 133 130 127 123 121 119 114 112 112 114 115 113 112 111 110 110 110 109 108 107 105 104 103
194 197 199 200 200 194 195 203 207 213 221 223 226 235 243 251 254 244 237 241 252 261 271 292 266 236 226 214 209 206 208 208 206 203 197 193 193 186 185 192 200 206 210 206 197 196 195 193 199 201 197 192 186 183 177 173 171 165 176 198 199 168 156 140 132 127 125 123 119 118 115 114 116 114 113 112 111 113 113 115 113 110 109 110 108
193 198 202 203 205 198 197 205 209 214 223 230 231 237 247 253 253 246 242 242 250 265 268 273 262 240 243 229 225 230 216 208 212 211 203 197 197 196 192 194 200 203 206 209 198 197 202 197 201 205 202 199 192 192 188 181 177 167 173 191 202 195 176 159 144 135 133 130 124 123 120 117 116 114 114 113 112 112 114 116 113 110 111 112 109
193 201 205 202 202 198 200 210 215 218 223 231 232 235 241 241 240 240 238 242 253 260 255 256 265 82 264 231 237 249 226 214 217 211 208 206 200 201 204 198 200 201 202 207 197 199 206 200 203 210 209 204 198 198 195 190 184 174 182 190 190 194 183 172 163 150 143 138 137 132 127 123 117 115 117 116 116 115 115 116 114 113 113 115 115
198 204 209 204 199 196 200 208 212 214 220 226 229 234 239 233 229 230 231 239 250 246 233 239 276 324 31 85 227 254 260 227 219 210 208 212 207 206 209 204 201 200 201 203 198 203 207 201 203 211 218 210 203 204 198 200 193 177 189 200 191 189 189 184 175 173 167 151 150 145 135 132 127 124 121 120 122 122 121 119 119 118 115 117 122
205 207 210 198 184 187 195 205 204 202 212 221 227 235 240 235 230 228 228 233 236 227 220 227 277 287 292 55 104 115 76 195 214 214 211 213 212 210 212 210 206 202 201 201 201 206 207 209 208 206 214 215 208 208 200 204 202 185 189 203 199 191 190 197 186 181 183 170 162 157 150 143 139 135 131 128 128 128 128 124 122 123 122 123 127
206 206 207 194 179 179 189 207 208 200 206 215 225 237 238 236 234 230 226 227 231 228 224 228 258 261 231 155 103 106 93 109 181 209 214 217 216 213 214 216 212 206 205 202 203 206 206 212 213 205 210 216 213 212 204 204 207 197 193 203 211 196 186 203 202 185 183 181 176 169 162 156 152 148 144 143 138 134 132 131 131 132 133 132 131
208 204 200 199 193 189 195 212 216 211 213 215 225 236 234 230 228 226 222 224 235 239 234 231 225 192 175 179 150 131 116 98 121 171 200 216 222 219 216 217 215 210 210 209 206 207 205 209 213 209 213 221 216 211 209 211 211 204 197 199 213 204 188 197 208 198 185 181 185 185 179 173 166 159 156 154 149 144 139 137 139 140 140 139 138
206 198 192 197 199 201 204 208 214 218 218 213 219 224 220 220 220 219 220 223 231 237 232 226 217 194 177 178 169 150 148 111 101 116 148 187 217 224 222 224 224 218 215 216 214 211 209 208 210 212 218 224 217 207 208 217 217 211 203 197 203 209 196 193 200 205 206 200 188 184 190 189 179 169 169 162 159 160 155 149 149 150 147 143 147
165 163 159 162 173 190 200 202 206 214 215 209 212 217 214 215 217 217 218 217 221 227 222 221 220 211 195 187 182 165 164 151 116 110 118 130 161 210 224 232 235 230 225 225 222 217 213 210 208 211 216 221 219 207 204 216 221 218 213 201 201 211 208 198 196 197 208 223 213 178 178 189 187 180 177 171 167 169 169 171 169 164 162 157 158
121 128 138 142 142 154 172 181 186 197 206 203 205 215 215 214 221 222 220 217 219 223 218 225 231 219 222 219 200 184 180 171 141 123 121 118 117 131 182 218 230 232 232 234 231 225 219 214 210 209 211 215 219 213 205 211 220 223 223 210 201 204 205 203 201 196 198 213 226 226 187 169 179 184 184 187 188 187 191 192 188 186 184 180 173
119 123 130 135 135 130 133 138 154 177 185 187 197 208 209 215 225 223 217 216 219 224 224 235 250 242 228 238 227 214 212 200 174 143 136 135 127 115 118 175 218 227 228 230 230 229 226 221 217 214 213 214 219 220 213 212 219 227 230 220 207 202 195 196 203 203 199 204 219 226 212 180 176 180 185 191 196 202 213 215 209 206 204 201 193
127 134 132 129 125 119 115 116 128 147 152 161 183 192 196 209 220 216 206 202 209 218 224 229 241 245 225 231 232 233 241 233 230 227 189 161 161 160 130 118 204 225 223 223 224 228 229 225 223 222 221 218 220 221 221 220 222 229 230 222 216 211 208 209 203 204 204 204 211 215 209 197 190 189 194 197 200 208 215 225 231 227 223 219 215
126 135 138 131 115 108 103 96 98 107 115 128 158 176 187 202 212 210 199 192 199 203 208 215 223 239 231 271 273 258 261 245 239 239 230 209 200 211 207 180 219 230 224 226 227 228 229 227 226 227 227 225 225 224 223 224 225 229 229 224 222 215 217 229 225 212 209 206 208 210 205 201 202 203 209 214 212 209 212 221 232 242 244 235 229
124 126 129 127 113 106 100 92 91 92 92 96 107 125 139 176 203 215 200 189 195 199 197 202 195 172 110 45 345 312 300 274 249 234 228 223 221 223 214 198 198 218 219 222 226 227 227 227 228 230 232 232 232 232 230 229 230 231 230 228 227 220 216 226 232 230 223 217 216 216 213 209 208 209 214 223 227 223 220 222 225 234 245 245 239
127 125 122 119 114 111 101 97 100 95 87 86 84 87 89 95 146 215 209 180 177 193 201 207 203 176 116 74 40 57 320 282 282 252 220 210 214 209 187 174 171 185 190 183 201 218 223 226 229 231 233 235 235 236 235 235 237 238 237 235 233 229 221 219 228 238 240 236 232 229 229 226 220 216 216 222 231 236 237 236 233 229 233 239 238
125 121 117 112 109 108 101 99 104 105 104 100 95 90 87 85 99 127 206 189 177 169 181 208 208 199 168 127 82 53 242 255 45 356 287 156 166 152 147 152 155 165 167 159 168 191 210 220 225 228 230 232 235 238 238 237 239 241 241 241 239 237 233 226 228 237 242 244 244 239 238 238 234 228 224 225 231 240 246 247 242 235 232 232 233
125 121 118 113 109 104 100 100 100 107 114 110 103 98 93 87 84 86 109 189 190 170 164 190 199 203 199 169 130 335 238 196 110 14 347 49 142 150 158 152 149 165 170 170 167 168 187 206 213 222 226 227 232 236 236 235 236 238 238 240 241 241 241 238 237 237 238 241 244 245 243 244 246 243 238 235 236 239 245 251 249 243 240 234 227
130 125 120 117 115 106 99 98 98 106 113 108 100 97 97 90 83 81 79 104 164 159 151 162 187 204 208 214 264 291 202 134 143 150 6 1 355 114 213 237 230 209 183 183 194 192 193 195 197 205 211 213 220 225 228 231 231 229 230 234 237 239 241 243 244 244 243 240 241 244 244 243 246 250 249 244 242 243 242 247 249 245 240 231 223
132 125 118 115 116 113 104 95 93 103 113 109 105 103 103 99 92 87 84 95 108 108 111 107 126 189 193 218 280 256 205 79 94 102 124 130 341 358 348 308 259 241 221 204 207 217 216 211 208 203 200 204 213 215 215 223 232 228 223 226 230 232 236 241 245 247 247 244 240 241 243 242 242 247 252 251 247 245 244 245 247 246 237 225 221
132 126 117 111 112 113 108 93 83 90 103 108 112 114 112 109 103 97 98 104 104 95 92 87 84 128 159 164 50 98 66 49 69 61 74 94 338 329 353 357 355 345 290 245 220 212 215 220 220 218 230 247 235 223 215 221 246 248 234 230 233 234 237 242 247 248 248 246 243 240 241 243 243 243 248 252 252 248 248 246 245 248 243 231 227
133 131 123 117 114 111 104 92 82 84 92 96 103 113 116 117 115 110 110 111 109 104 95 91 89 92 111 124 100 93 64 47 62 57 54 70 75 10 358 3 359 24 24 351 278 240 231 230 224 227 255 260 252 253 251 247 262 269 262 255 248 246 249 252 252 251 251 249 245 240 239 243 246 246 246 250 254 252 252 251 247 247 244 237 233
133 130 130 130 126 119 107 96 89 86 87 87 91 101 108 110 114 116 119 118 117 116 106 100 98 93 96 104 101 96 92 79 75 75 73 70 70 9 352 8 2 19 29 24 9 335 303 288 293 359 13 275 265 269 268 266 265 266 271 270 262 259 262 263 263 262 261 259 254 246 241 242 246 250 250 251 253 252 252 254 251 247 242 237 234
144 136 135 141 140 135 125 112 103 96 88 84 82 86 93 96 100 108 117 119 122 126 117 107 108 104 99 101 101 97 94 92 90 85 80 80 92 72 1 13 11 22 34 45 50 43 39 49 50 56 61 53 24 302 267 265 264 259 265 270 270 273 278 280 280 276 273 275 271 257 245 244 246 251 255 255 254 252 251 252 250 249 247 239 231
160 155 146 143 142 139 137 129 118 109 99 89 80 78 82 90 97 101 111 120 122 122 117 110 108 108 107 108 107 101 97 97 99 97 93 94 93 78 32 34 24 24 39 52 63 67 69 65 60 62 59 50 43 35 346 257 257 253 256 267 278 290 300 303 297 291 288 294 299 292 269 265 263 262 262 259 257 255 253 250 249 251 251 243 235
165 159 153 147 141 137 137 137 135 133 123 108 97 86 81 87 93 91 98 119 132 127 119 114 111 109 112 116 111 105 102 102 100 97 99 98 80 57 54 77 49 36 50 57 64 65 60 52 48 51 51 46 44 45 49 52 35 293 260 281 321 329 329 330 319 307 301 300 307 309 299 288 282 278 274 269 266 266 263 258 256 257 254 247 241
165 156 155 154 148 140 136 135 139 148 149 137 123 109 83 73 83 88 89 99 127 137 129 120 117 110 105 114 122 113 102 103 102 92 92 89 74 56 60 92 60 24 34 47 55 51 42 37 37 38 38 38 42 47 49 51 55 54 45 33 18 6 354 342 332 322 312 304 299 296 295 297 297 295 291 284 278 275 272 269 266 266 264 257 249
165 160 159 158 153 148 144 138 140 149 157 155 142 133 105 59 79 106 103 90 101 128 133 126 115 101 91 95 114 110 89 93 110 106 96 82 72 64 60 73 90 49 4 8 31 41 32 27 25 23 24 24 28 37 43 46 49 44 33 26 15 5 355 338 331 326 320 315 308 302 300 300 301 298 297 296 293 289 285 280 275 272 269 265 260
168 165 163 163 160 158 156 147 142 149 159 161 153 144 144 30 66 103 113 94 86 108 127 130 119 101 89 78 79 87 79 80 96 112 111 83 70 65 56 58 72 101 103 10 338 349 21 19 13 8 11 17 20 24 32 34 33 26 15 8 358 348 340 333 327 322 318 315 310 306 303 300 299 298 298 298 297 296 294 290 286 281 275 268 265
177 173 170 169 168 167 164 156 147 149 161 167 165 169 221 279 51 66 102 97 75 88 118 132 128 116 106 81 76 90 87 81 86 89 88 77 62 54 51 48 47 68 113 82 333 309 3 6 7 1 2 14 23 23 26 26 18 9 358 350 347 343 337 332 329 326 323 318 314 311 308 306 305 303 303 302 300 298 295 291 286 284 281 276 271
187 183 179 177 175 176 172 168 162 157 164 173 175 184 213 233 232 252 253 121 195 232 126 119 129 141 139 106 79 92 90 85 91 87 77 69 57 48 52 50 41 42 53 64 68 330 341 347 355 357 358 5 12 11 7 5 358 351 346 341 340 342 340 335 333 334 332 328 324 320 314 311 311 312 311 310 309 306 301 295 289 283 279 277 276
195 191 189 185 184 186 183 179 177 172 171 175 181 189 201 220 227 233 247 246 227 232 238 270 280 178 171 158 70 68 68 87 91 76 56 44 33 29 36 40 35 20 8 19 324 303 328 341 344 349 354 355 356 357 353 351 352 351 350 348 345 343 341 339 336 336 334 330 327 323 319 316 315 317 318 316 314 312 308 302 293 286 280 276 275
202 198 196 194 195 196 194 191 189 185 181 179 185 193 198 211 221 224 234 241 238 240 237 248 264 208 190 203 186 14 339 150 117 29 21 26 20 19 19 19 23 15 358 355 330 311 325 336 338 343 347 347 348 351 349 349 352 353 352 352 351 347 344 341 337 336 337 335 332 327 323 320 318 318 319 317 314 310 308 306 298 288 280 275 273
206 204 202 201 203 205 203 202 199 197 196 193 195 202 204 210 218 221 224 229 234 239 236 237 245 233 211 216 229 266 270 226 232 315 2 33 25 26 37 34 26 29 21 6 356 334 326 329 333 338 341 342 344 347 348 348 348 348 347 349 349 347 343 340 337 337 336 334 331 329 327 323 320 319 319 319 318 314 308 306 303 295 283 275 272
210 209 208 207 207 209 211 211 207 204 206 209 211 215 218 218 222 224 226 229 231 235 237 236 237 236 229 225 233 245 248 254 297 299 264 21 10 17 30 28 19 18 15 7 3 356 335 327 328 333 337 338 338 341 344 344 344 344 343 342 342 341 340 338 337 338 338 335 332 331 329 327 324 322 322 320 320 320 317 312 308 304 296 285 277
208 210 212 214 213 212 213 214 213 211 212 217 221 223 226 227 228 229 230 233 234 235 237 236 235 234 233 230 232 233 232 240 273 279 249 303 328 335 344 345 345 345 347 350 352 352 343 330 325 326 331 332 333 339 342 340 339 341 340 337 336 336 336 338 339 339 338 336 334 332 330 327 323 320 320 320 321 321 320 317 312 307 304 297 289
201 203 210 215 217 217 217 217 215 215 216 221 226 230 232 231 231 232 234 236 238 237 236 235 233 232 232 233 232 229 229 232 245 258 249 261 288 300 310 317 324 329 331 331 333 334 333 331 325 321 323 328 330 334 340 339 337 336 332 328 328 329 326 326 328 331 331 328 325 323 320 317 314 312 312 315 317 318 318 317 314 311 306 302 296
214 209 211 215 217 220 223 221 219 221 224 228 231 233 235 235 235 236 237 239 241 241 240 237 234 233 232 233 232 230 231 234 238 243 240 247 268 282 295 306 315 322 325 324 322 322 323 325 325 322 324 328 331 332 335 337 338 337 333 327 322 322 323 321 319 321 325 325 323 322 319 315 312 310 309 309 310 312 315 317 317 316 315 311 305
228 226 230 228 224 223 226 228 229 233 236 238 238 236 235 238 240 240 240 242 244 244 245 243 240 237 234 230 229 228 229 234 238 236 239 252 266 277 288 297 306 319 324 322 320 322 325 326 327 328 328 328 330 332 334 336 337 339 341 337 328 325 327 326 322 321 321 318 315 313 313 313 311 309 306 305 308 313 316 317 317 317 317 316 314
239 241 242 238 233 229 230 236 243 245 244 243 242 241 240 241 246 249 246 244 244 244 245 245 243 241 237 232 228 226 224 228 234 236 240 253 265 273 280 284 298 317 323 321 321 326 330 330 330 332 330 327 330 335 337 340 341 338 340 339 330 327 329 326 324 325 322 315 311 308 306 308 308 306 305 303 303 308 310 310 312 314 313 312 310
250 251 250 248 246 246 248 252 256 255 252 249 248 248 247 248 255 261 256 248 246 244 243 243 241 239 237 234 229 224 220 220 224 229 233 244 260 268 272 278 297 315 318 316 322 327 328 328 328 331 331 327 330 335 335 337 338 332 330 330 326 326 328 324 323 324 321 317 316 314 311 312 312 309 307 304 301 302 302 301 303 305 306 304 303
259 259 260 260 260 262 264 264 261 258 256 255 255 256 256 257 260 262 260 255 250 246 243 243 240 236 233 232 228 222 218 218 220 222 224 231 243 253 260 273 296 310 311 311 317 320 320 321 322 326 327 322 325 329 327 326 327 326 325 325 323 323 326 325 322 321 322 323 324 322 318 319 318 314 310 306 302 302 302 301 300 300 299 296 293
287 283 279 275 273 275 278 275 268 263 262 262 262 263 263 263 261 260 260 258 253 248 246 244 239 233 228 227 224 217 214 216 218 219 223 230 236 242 250 266 286 297 299 303 307 309 310 313 316 319 318 314 318 322 322 322 325 323 320 319 320 321 323 323 317 313 316 322 325 323 319 319 322 319 315 313 311 309 308 305 303 303 301 297 292
18 0 336 313 302 295 289 284 279 276 276 278 275 271 268 265 262 260 259 256 250 248 246 242 237 231 225 219 214 211 211 213 215 217 222 229 235 242 254 268 279 285 288 289 292 296 302 307 310 311 310 310 314 318 321 323 321 316 313 314 316 318 316 311 303 302 308 316 320 317 313 314 319 318 315 316 317 317 316 313 311 311 308 304 300
8 358 352 344 339 333 319 306 295 286 283 284 283 280 277 273 267 263 262 259 254 250 247 241 236 230 223 214 208 206 207 209 212 215 219 225 234 245 259 269 273 274 277 279 280 286 295 302 303 303 306 310 311 312 315 315 312 311 313 313 314 314 310 303 299 299 303 309 313 311 306 308 314 315 313 315 319 321 321 317 313 309 306 305 305
353 346 342 338 339 338 334 328 319 307 296 284 275 273 276 278 272 264 263 265 263 257 251 244 238 232 223 213 204 199 200 205 210 211 216 225 237 250 260 266 266 266 267 271 276 285 294 298 298 298 302 304 304 305 306 306 308 311 313 313 313 312 307 301 298 299 300 304 309 307 299 303 311 311 310 315 320 320 318 314 311 308 309 312 314
337 336 336 333 330 326 322 320 318 318 314 297 276 264 265 272 272 264 259 260 261 258 252 246 239 229 218 209 202 200 203 209 210 211 219 228 240 251 259 260 258 256 257 266 274 282 289 291 291 292 293 294 295 296 297 298 300 301 303 304 304 304 303 301 299 299 299 301 305 302 291 296 307 307 306 314 320 320 320 322 323 325 325 325 325
311 316 318 318 318 315 313 312 313 314 314 309 289 271 264 266 267 265 257 249 247 244 241 236 227 216 210 207 203 201 202 202 204 213 226 239 250 255 253 248 247 247 253 265 273 278 283 286 287 287 286 287 289 290 292 295 297 299 301 299 299 300 300 299 297 296 297 299 302 299 290 292 301 302 303 312 319 319 321 326 327 324 322 323 326
292 300 306 309 308 307 306 306 308 310 311 311 301 282 269 262 259 256 244 227 219 210 201 196 191 187 187 191 191 187 188 195 211 230 243 249 252 250 244 241 248 256 264 269 273 276 279 280 281 282 282 284 286 288 292 294 295 298 300 300 301 301 299 296 292 293 294 294 297 297 287 286 293 297 301 311 314 311 315 315 305 303 310 319 326
286 290 296 300 299 299 302 303 306 309 307 307 301 284 269 260 252 241 223 203 188 174 163 160 163 167 169 177 188 194 203 223 236 241 242 242 241 244 250 261 270 276 281 283 283 284 283 283 284 284 285 287 289 291 295 298 300 302 302 303 307 303 296 291 290 295 297 295 300 301 285 281 293 299 301 306 305 302 305 302 293 300 310 319 326
278 280 283 287 290 294 298 302 307 310 309 307 299 279 262 250 237 222 207 189 174 167 166 165 166 173 180 188 201 212 220 228 231 232 234 239 248 262 276 287 293 294 296 296 296 296 296 296 298 299 300 301 302 303 306 311 318 321 314 311 311 302 293 289 290 296 299 296 308 313 292 287 295 297 295 298 300 301 300 293 297 307 312 316 323